STARLINK-1341 (45534 NORAD) Tracking and Keplerian Element Data

This shows tracking and keplerian element data for the satellite.

Feedback or suggestion? Click here.




ElementValue
Catalog45534
NameSTARLINK-1341
Epoch Orbit564
Epoch Day145.33334491
Epoch Year2020
RAAN245.057
Inclination52.9992
Eccentricity0.000398
Argument of Perigee9.3913
Mean Anonmoly307.5371
Mean Motion15.4497624
Decay Rate0.03104153
L11 45534U 20025D 20145.33334491 .03104153 00000-0 56957-1 0 9992
L22 45534 52.9992 245.0570 0003980 9.3913 307.5371 15.44976240 5640

Live tracking and technical data element details for STARLINK-1341 (NORAD 45534). STARLINK-1341 can be tracked NOW for your location showing map with azimuth and elevation plus other details from your city location.

Track the satellite on the map from your city or location and see movement details for azimuth, elevation, latitude, longitude, range, height, and movement on the map or in text.







IsCatalogInMostPopularTable: catalog: 45534, numindb: 6
Update: records affected: 1



GetName: 45534 STARLINK-1341

Hit Count: updated at: Mon, 25 May 2020 08:44:12 GMT